Powrót do katalogu

STARLINK-32459

AktywnyŁącznośćVLEO
NORAD 61715·PAYLOAD·🇺🇸 United States

Wystrzelony Oct 30, 2024 z Cape Canaveral Space Force Station

Loading…

Następne Przeloty (najbliższe 24 godziny)

TLE

ŚwieżeSource: CelesTrak SupGP

Epoka: Sep 14, 2026, 21:20 UTC

1 61715C 24196J   26257.88937500  .00014476  00000+0  42781-3 0  2577
2 61715  53.1593 299.9732 0001196  91.3801 133.7899 15.34374788    19

Śledź STARLINK-32459 w czasie rzeczywistym z AllMySat

Download on the App Store